SL-14 DEB, 45320

Orbit data source: Space-Track

SL-14 DEB, 45320 is space debris in LEO originally from a launch on Thu, 15 Aug 1991 UTC launched from the Plesetsk Missile And Space Complex (PKMTR). Debris objects in space refer to the collection of defunct objects orbiting the Earth. Examples of debris include non-operational satellites, rocket bodies, and fragments generated from explosions, collisions, or faulty payload assembly.

Loading next visibility...
Identifier
45320, 1991-056BJ
Orbit
LEO
Country
Flag of CISCIS
Related business
Manufacturer
Unknown
Mission
Spacecraft
Bus & Motor
Unknown
Mass
Unknown
Launch date (UTC)
1991-08-15 (35 years ago)
Launch vehicle
Unknown
Launch site
Plesetsk Missile And Space Complex (PKMTR)
Object type
Payload
Rocket body
Debris
Shape & HBR
Unknown shape, 0.1 m
Radar Cross Section
Medium (>0.1 m² and <1 m²)

Expand to show TLE details & history
Last TLE update: 14 hours ago

TLE from 14 hours ago
0 SL-14 DEB
1 45320U 91056BJ  26257.30844300  .00000467  00000-0  85792-3 0  9990
2 45320  82.5687  24.7278 0077516   4.5010 355.6804 13.37151732318880
Epoch: 2026-09-14T07:24Z
TLE epoch observation values (Epoch: 2026-09-14T07:24:09.475Z)
Latitude
0.00006°
Longitude
-79.60227°
Altitude
1,064.78 km
Speed
7.348 km/s
True Right ascension
01h 38m 54s
True Declination
0° 00' 00"
Sunlit
Object was in full shadow at epoch
Visualization orbit readout
Latitude
Unknown
Longitude
Unknown
Altitude
Unknown
Speed
Unknown
Apparent Right ascension
Unknown
Apparent Declination
Unknown
Sunlit
N/A
Visualization observer readout
Local Sidereal Time
14:25:18
Azimuth
Unknown
Elevation
Unknown
Doppler factor
Unknown
Orbital elements
Apogee altitude
1,175.224 km
Perigee altitude
1,059.023 km
Semi-major axis
7,495.261 km
Eccentricity
0.00775
Inclination
82.5687°
RAAN
24.7278°
Arg. of periapsis
4.501°
True anomaly
355.61284°
Mean anomaly
355.6804°
Eccentric anomaly
355.64669°
Mean motion
3.34475 °/min
Orbital period
107.63 mins
BSTAR
0.00085792
Loading maneuver chart data...
Computing Atmospheric mass density...
Loading historical data...
Loading historical data...
Loading historical data...
Loading historical data...
Loading historical data...
Loading historical data...
Loading historical data...

Documentation

Showing up to 5 results
|